Glasgow, KY

12:49 AM CST on December 14, 2017 (GMT -0600)
Glasgow Municipal

Weather History for KGLW - October, 2011

Change the Weather History Date:

Thursday, October 6, 2011

  Actual Average Record
Temperature  
Mean Temperature 66 °F -  
Max Temperature 83 °F 72 °F 89 °F (2007)
Min Temperature 49 °F 48 °F 30 °F (1980)
Cooling Degree Days 1    
Growing Degree Days 16 (Base 50)    
Moisture  
Dew Point 53 °F    
Average Humidity 62    
Maximum Humidity 100    
Minimum Humidity 30    
Precipitation  
Precipitation 0.00 in - - ()
Sea Level Pressure  
Sea Level Pressure 30.25 in    
Wind  
Wind Speed 1 mph (SW)    
Max Wind Speed 7 mph    
Max Gust Speed -    
Visibility 9 miles    
Events      
Averages and records for this station are not official NWS values.
T = Trace of Precipitation, MM = Missing Value Source: NWS Daily Summary

Daily Weather History Graph

Daily Weather History Graph

Search for Another Location

Airport or City:

Trip Planner

Search our weather history database for the weather conditions in past years. The results will help you decide how hot, cold, wet, or windy it might be!

Date:

Astronomy

Oct. 06, 2011 Rise Set
Actual Time 6:43 AM CDT 6:20 PM CDT
Civil Twilight 6:17 AM CDT 6:46 PM CDT
Nautical Twilight 5:47 AM CDT 7:16 PM CDT
Astronomical Twilight 5:16 AM CDT 7:46 PM CDT
Moon 3:27 PM CDT (10/6) 1:38 AM CDT (10/6)
Length of Visible Light 12h 28m
Length of Day
11h 36m
Waxing Gibbous, 75% of the Moon is Illuminated
Oct 6
Waxing Gibbous
Oct 11
Full
Oct 19
Last Quarter
Oct 26
New
Nov 2
First Quarter

Hourly Weather History & Observations

Time (CDT) Temp. Heat Index Dew Point Humidity Pressure Visibility Wind Dir Wind Speed Gust Speed Precip Events Conditions
12:15 AM 55.8 °F - 55.9 °F 100% 30.22 in 10.0 mi Calm Calm - N/A   Clear
12:35 AM 54.5 °F - 54.7 °F 100% 30.22 in 10.0 mi Calm Calm - N/A   Clear
12:55 AM 53.8 °F - 54.0 °F 100% 30.22 in 10.0 mi Calm Calm - N/A   Clear
1:15 AM - - - N/A% 30.22 in 10.0 mi North 3.5 mph - N/A   Clear
1:35 AM 53.1 °F - 53.8 °F 100% 30.22 in 10.0 mi Calm Calm - N/A   Clear
1:55 AM 53.1 °F - 53.2 °F 100% 30.23 in 10.0 mi Calm Calm - N/A   Clear
2:15 AM 53.1 °F - 53.2 °F 100% 30.23 in 10.0 mi Calm Calm - N/A   Clear
2:35 AM 52.7 °F - 52.9 °F 100% 30.23 in 10.0 mi Calm Calm - N/A   Clear
2:55 AM 51.8 °F - - N/A% 30.23 in 10.0 mi Calm Calm - N/A   Clear
3:15 AM 51.6 °F - - N/A% 30.23 in 10.0 mi Calm Calm - N/A   Clear
3:35 AM 51.4 °F - - N/A% 30.22 in 7.0 mi Calm Calm - N/A   Clear
3:55 AM 51.3 °F - - N/A% 30.22 in 7.0 mi Calm Calm - N/A   Clear
4:15 AM 51.1 °F - - N/A% 30.22 in 7.0 mi Calm Calm - N/A   Clear
4:35 AM 51.1 °F - - N/A% 30.23 in 7.0 mi Calm Calm - N/A   Clear
4:55 AM 51.3 °F - - N/A% 30.23 in 7.0 mi Calm Calm - N/A   Clear
5:15 AM 51.4 °F - - N/A% 30.23 in 10.0 mi Calm Calm - N/A   Clear
5:55 AM 50.5 °F - - N/A% 30.24 in 7.0 mi Calm Calm - N/A   Clear
6:15 AM 50.0 °F - - N/A% 30.25 in 7.0 mi Calm Calm - N/A   Clear
6:35 AM 49.6 °F - - N/A% 30.25 in 7.0 mi Calm Calm - N/A   Clear
6:55 AM 50.0 °F - - N/A% 30.25 in 5.0 mi Calm Calm - N/A   Haze
7:15 AM 49.5 °F - - N/A% 30.26 in 7.0 mi Calm Calm - N/A   Clear
7:35 AM 51.1 °F - - N/A% 30.26 in 7.0 mi Calm Calm - N/A   Clear
7:55 AM 53.8 °F - 54.1 °F 100% 30.26 in 10.0 mi Calm Calm - N/A   Clear
8:15 AM 56.8 °F - 57.0 °F 100% 30.27 in 10.0 mi Calm Calm - N/A   Clear
8:35 AM 59.2 °F - 58.1 °F 96% 30.27 in 10.0 mi Calm Calm - N/A   Clear
8:55 AM 61.5 °F - 54.3 °F 77% 30.28 in 10.0 mi Calm Calm - N/A   Clear
9:15 AM 63.1 °F - 54.1 °F 72% 30.28 in 10.0 mi Calm Calm - N/A   Clear
9:55 AM 68.2 °F - 54.9 °F 62% 30.29 in 10.0 mi Calm Calm - N/A   Clear
10:15 AM 70.9 °F - 55.0 °F 57% 30.29 in 10.0 mi Calm Calm - N/A   Clear
10:35 AM 72.7 °F - 55.2 °F 54% 30.29 in 10.0 mi SW 5.8 mph - N/A   Clear
10:55 AM 74.1 °F - 54.9 °F 51% 30.28 in 10.0 mi Calm Calm - N/A   Clear
11:15 AM 75.6 °F - 54.3 °F 48% 30.28 in 10.0 mi South 3.5 mph - N/A   Clear
11:35 AM 76.8 °F - 54.0 °F 45% 30.28 in 10.0 mi WSW 5.8 mph - N/A   Clear
11:55 AM 77.7 °F - 53.1 °F 42% 30.27 in 10.0 mi WSW 6.9 mph - N/A   Clear
12:15 PM 78.8 °F - 51.8 °F 39% 30.27 in 10.0 mi SSW 5.8 mph - N/A   Clear
12:35 PM 79.7 °F - 51.3 °F 37% 30.26 in 10.0 mi SW 4.6 mph - N/A   Clear
12:55 PM 80.1 °F - 51.4 °F 37% 30.25 in 10.0 mi Calm Calm - N/A   Clear
1:15 PM 81.0 °F - 50.7 °F 35% 30.25 in 10.0 mi WSW 3.5 mph - N/A   Clear
1:35 PM 81.9 °F - 49.1 °F 32% 30.24 in 10.0 mi WNW 3.5 mph - N/A   Clear
1:55 PM 82.4 °F - 49.3 °F 31% 30.23 in 10.0 mi SSE 3.5 mph - N/A   Clear
2:15 PM 82.8 °F - 48.9 °F 31% 30.23 in 10.0 mi Calm Calm - N/A   Clear
2:35 PM 82.9 °F - 48.9 °F 31% 30.23 in 10.0 mi Calm Calm - N/A   Clear
2:55 PM 82.9 °F - 48.9 °F 31% 30.23 in 10.0 mi SSE 3.5 mph - N/A   Clear
3:15 PM 82.9 °F - 48.2 °F 30% 30.23 in 10.0 mi Calm Calm - N/A   Clear
3:35 PM 83.1 °F - 48.9 °F 30% 30.23 in 10.0 mi East 3.5 mph - N/A   Clear
3:55 PM 82.6 °F - 48.4 °F 30% 30.23 in 10.0 mi Calm Calm - N/A   Clear
4:15 PM 82.8 °F - 49.1 °F 31% 30.23 in 10.0 mi Calm Calm - N/A   Clear
4:35 PM 82.2 °F - 48.9 °F 31% 30.23 in 10.0 mi Calm Calm - N/A   Clear
4:55 PM 81.7 °F - 49.6 °F 33% 30.23 in 10.0 mi Calm Calm - N/A   Clear
5:15 PM 80.4 °F 80.1 °F 53.2 °F 39% 30.23 in 10.0 mi Calm Calm - N/A   Clear
5:35 PM 79.3 °F - 52.0 °F 38% 30.23 in 10.0 mi Calm Calm - N/A   Clear
5:55 PM 77.5 °F - 52.5 °F 42% 30.23 in 10.0 mi Calm Calm - N/A   Clear
6:15 PM 72.3 °F - 55.4 °F 55% 30.23 in 10.0 mi Calm Calm - N/A   Clear
6:35 PM 68.7 °F - 55.4 °F 62% 30.23 in 10.0 mi Calm Calm - N/A   Clear
6:55 PM 65.7 °F - 55.4 °F 69% 30.24 in 10.0 mi Calm Calm - N/A   Clear
7:15 PM 64.9 °F - 54.9 °F 70% 30.24 in 10.0 mi Calm Calm - N/A   Clear
7:35 PM 63.5 °F - 54.9 °F 73% 30.24 in 10.0 mi Calm Calm - N/A   Clear
7:55 PM 63.0 °F - 54.3 °F 73% 30.25 in 10.0 mi Calm Calm - N/A   Clear
8:15 PM 62.1 °F - 54.5 °F 76% 30.25 in 10.0 mi Calm Calm - N/A   Clear
8:35 PM 61.5 °F - 55.0 °F 79% 30.26 in 10.0 mi Calm Calm - N/A   Clear
8:55 PM 60.3 °F - 56.3 °F 87% 30.26 in 10.0 mi Calm Calm - N/A   Clear
9:15 PM 58.6 °F - 58.8 °F 100% 30.26 in 10.0 mi Calm Calm - N/A   Clear
9:35 PM 59.4 °F - 59.5 °F 100% 30.27 in 10.0 mi Calm Calm - N/A   Clear
9:55 PM 58.1 °F - 58.3 °F 100% 30.27 in 10.0 mi Calm Calm - N/A   Clear
10:15 PM 58.6 °F - 58.6 °F 100% 30.27 in 10.0 mi Calm Calm - N/A   Clear
10:35 PM 58.3 °F - 58.3 °F 100% 30.27 in 10.0 mi Calm Calm - N/A   Clear
10:55 PM 57.7 °F - 57.9 °F 100% 30.27 in 10.0 mi Calm Calm - N/A   Clear
11:15 PM 57.6 °F - 57.7 °F 100% 30.27 in 10.0 mi Calm Calm - N/A   Clear
11:35 PM 58.1 °F - 58.1 °F 100% 30.27 in 10.0 mi Calm Calm - N/A   Clear
11:55 PM 57.6 °F - 57.6 °F 100% 30.26 in 10.0 mi Calm Calm - N/A   Clear